HULIANWANG DIGUI-134

导读 | 豆包AI

**卫星摘要** HULIANWANG DIGUI-134是一颗由中国发射的卫星,于北京时间2025年12月25日凌晨成功进入预定轨道。作为我国低轨卫星互联网建设的组成部分,该卫星将承担卫星通信网络组网任务,为全球用户提供更稳定的互联网接入服务,进一步推动天地一体化信息网络构建,助力数字基础设施覆盖范围拓展。

基本信息
目录编号:
67242
目录名称:
HULIANWANG DIGUI-134
国际标识:
2025-311G
轨道中心:
EARTH
卫星名称:
HULIANWANG DIGUI-134
卫星全名:
HULIANWANG DIGUI-134
卫星状态:
在轨 (已飞行151 天)
发射日期:
2025-12-25 UTC
国别 :
中国 (CN)
星等 :
--
轨道信息
数据来源 国际轨道数据 AOE轨道数据
星历时间 2026-05-24T11:54:20+0800
1天前
查看轨道信息
2026-05-23T04:00:00+0800
2天前
查看轨道信息
半长轴 7527.457km 7527.463km
偏心率 0.000099 0.0000891
轨道倾角 50.002° 50.002°
近地点辐角 243.073° 225.786°
升交点赤经 201.933° 206.703°
平近点角 117.004° 248.434°
近地点 1148.574km 1148.655km
远地点 1150.066km 1149.997km
周期 108.326分钟 108.326分钟
每日圈数 13.293226 13.29321
详细信息
使用方式:
暂无
2D轨道图
3D轨道图
轨道高度分析图
轨道倾角分析图
轨道综合分析图
查看轨道综合分析图